Year,Month,Day,Hour,Minute,Value (Times are PST for temperature in C)
2014,07,25,00,00,13.80
2014,07,25,00,01,13.70
2014,07,25,00,02,13.70
2014,07,25,00,03,13.70
2014,07,25,00,04,13.70
2014,07,25,00,05,13.70
2014,07,25,00,06,13.70
2014,07,25,00,07,13.70
2014,07,25,00,08,13.70
2014,07,25,00,09,13.70
2014,07,25,00,10,13.70
2014,07,25,00,11,13.70
2014,07,25,00,12,13.70
2014,07,25,00,13,13.70
2014,07,25,00,14,13.70
2014,07,25,00,15,13.70
2014,07,25,00,16,13.70
2014,07,25,00,17,13.70
2014,07,25,00,18,13.70
2014,07,25,00,19,13.70
2014,07,25,00,20,13.70
2014,07,25,00,21,13.70
2014,07,25,00,22,13.70
2014,07,25,00,23,13.70
2014,07,25,00,24,13.70
2014,07,25,00,25,13.70
2014,07,25,00,26,13.70
2014,07,25,00,27,13.70
2014,07,25,00,28,13.70
2014,07,25,00,29,13.70
2014,07,25,00,30,13.70
2014,07,25,00,31,13.70
2014,07,25,00,32,13.70
2014,07,25,00,33,13.70
2014,07,25,00,34,13.70
2014,07,25,00,35,13.70
2014,07,25,00,36,13.60
2014,07,25,00,37,13.60
2014,07,25,00,38,13.60
2014,07,25,00,39,13.70
2014,07,25,00,40,13.60
2014,07,25,00,41,13.60
2014,07,25,00,42,13.60
2014,07,25,00,43,13.60
2014,07,25,00,44,13.60
2014,07,25,00,45,13.60
2014,07,25,00,46,13.60
2014,07,25,00,47,13.60
2014,07,25,00,48,13.60
2014,07,25,00,49,13.60
2014,07,25,00,50,13.60
2014,07,25,00,51,13.60
2014,07,25,00,52,13.60
2014,07,25,00,53,13.50
2014,07,25,00,54,13.50
2014,07,25,00,55,13.50
2014,07,25,00,56,13.50
2014,07,25,00,57,13.50
2014,07,25,00,58,13.50
2014,07,25,00,59,13.50
2014,07,25,01,00,13.40
2014,07,25,01,01,13.40
2014,07,25,01,02,13.40
2014,07,25,01,03,13.40
2014,07,25,01,04,13.40
2014,07,25,01,05,13.40
2014,07,25,01,06,13.40
2014,07,25,01,07,13.40
2014,07,25,01,08,13.40
2014,07,25,01,09,13.40
2014,07,25,01,10,13.40
2014,07,25,01,11,13.40
2014,07,25,01,12,13.40
2014,07,25,01,13,13.30
2014,07,25,01,14,13.30
2014,07,25,01,15,13.30
2014,07,25,01,16,13.30
2014,07,25,01,17,13.30
2014,07,25,01,18,13.30
2014,07,25,01,19,13.30
2014,07,25,01,20,13.30
2014,07,25,01,21,13.30
2014,07,25,01,22,13.30
2014,07,25,01,23,13.30
2014,07,25,01,24,13.30
2014,07,25,01,25,13.30
2014,07,25,01,26,13.30
2014,07,25,01,27,13.30
2014,07,25,01,28,13.30
2014,07,25,01,29,13.30
2014,07,25,01,30,13.30
2014,07,25,01,31,13.30
2014,07,25,01,32,13.30
2014,07,25,01,33,13.30
2014,07,25,01,34,13.30
2014,07,25,01,35,13.30
2014,07,25,01,36,13.30
2014,07,25,01,37,13.30
2014,07,25,01,38,13.30
2014,07,25,01,39,13.30
2014,07,25,01,40,13.30
2014,07,25,01,41,13.30
2014,07,25,01,42,13.30
2014,07,25,01,43,13.30
2014,07,25,01,44,13.30
2014,07,25,01,45,13.30
2014,07,25,01,46,13.30
2014,07,25,01,47,13.30
2014,07,25,01,48,13.30
2014,07,25,01,49,13.30
2014,07,25,01,50,13.30
2014,07,25,01,51,13.30
2014,07,25,01,52,13.20
2014,07,25,01,53,13.20
2014,07,25,01,54,13.20
2014,07,25,01,55,13.30
2014,07,25,01,56,13.20
2014,07,25,01,57,13.20
2014,07,25,01,58,13.20
2014,07,25,01,59,13.20
2014,07,25,02,00,13.20
2014,07,25,02,01,13.20
2014,07,25,02,02,13.20
2014,07,25,02,03,13.20
2014,07,25,02,04,13.20
2014,07,25,02,05,13.20
2014,07,25,02,06,13.10
2014,07,25,02,07,13.10
2014,07,25,02,08,13.10
2014,07,25,02,09,13.10
2014,07,25,02,10,13.10
2014,07,25,02,11,13.10
2014,07,25,02,12,13.10
2014,07,25,02,13,13.00
2014,07,25,02,14,13.00
2014,07,25,02,15,13.00
2014,07,25,02,16,13.00
2014,07,25,02,17,13.00
2014,07,25,02,18,12.90
2014,07,25,02,19,12.90
2014,07,25,02,20,12.90
2014,07,25,02,21,12.90
2014,07,25,02,22,12.80
2014,07,25,02,23,12.80
2014,07,25,02,24,12.80
2014,07,25,02,25,12.80
2014,07,25,02,26,12.80
2014,07,25,02,27,12.80
2014,07,25,02,28,12.80
2014,07,25,02,29,12.80
2014,07,25,02,30,12.80
2014,07,25,02,31,12.80
2014,07,25,02,32,12.80
2014,07,25,02,33,12.80
2014,07,25,02,34,12.70
2014,07,25,02,35,12.70
2014,07,25,02,36,12.70
2014,07,25,02,37,12.70
2014,07,25,02,38,12.70
2014,07,25,02,39,12.70
2014,07,25,02,40,12.60
2014,07,25,02,41,12.60
2014,07,25,02,42,12.60
2014,07,25,02,43,12.60
2014,07,25,02,44,12.50
2014,07,25,02,45,12.50
2014,07,25,02,46,12.50
2014,07,25,02,47,12.40
2014,07,25,02,48,12.40
2014,07,25,02,49,12.40
2014,07,25,02,50,12.40
2014,07,25,02,51,12.40
2014,07,25,02,52,12.30
2014,07,25,02,53,12.30
2014,07,25,02,54,12.30
2014,07,25,02,55,12.30
2014,07,25,02,56,12.30
2014,07,25,02,57,12.30
2014,07,25,02,58,12.30
2014,07,25,02,59,12.20
2014,07,25,03,00,12.20
2014,07,25,03,01,12.20
2014,07,25,03,02,12.20
2014,07,25,03,03,12.20
2014,07,25,03,04,12.20
2014,07,25,03,05,12.20
2014,07,25,03,06,12.20
2014,07,25,03,07,12.20
2014,07,25,03,08,12.20
2014,07,25,03,09,12.20
2014,07,25,03,10,12.10
2014,07,25,03,11,12.10
2014,07,25,03,12,12.10
2014,07,25,03,13,12.10
2014,07,25,03,14,12.20
2014,07,25,03,15,12.20
2014,07,25,03,16,12.20
2014,07,25,03,17,12.20
2014,07,25,03,18,12.30
2014,07,25,03,19,12.30
2014,07,25,03,20,12.30
2014,07,25,03,21,12.30
2014,07,25,03,22,12.30
2014,07,25,03,23,12.30
2014,07,25,03,24,12.30
2014,07,25,03,25,12.30
2014,07,25,03,26,12.30
2014,07,25,03,27,12.30
2014,07,25,03,28,12.30
2014,07,25,03,29,12.30
2014,07,25,03,30,12.20
2014,07,25,03,31,12.20
2014,07,25,03,32,12.20
2014,07,25,03,33,12.20
2014,07,25,03,34,12.20
2014,07,25,03,35,12.20
2014,07,25,03,36,12.20
2014,07,25,03,37,12.20
2014,07,25,03,38,12.20
2014,07,25,03,39,12.20
2014,07,25,03,40,12.10
2014,07,25,03,41,12.10
2014,07,25,03,42,12.10
2014,07,25,03,43,12.10
2014,07,25,03,44,12.10
2014,07,25,03,45,12.10
2014,07,25,03,46,12.10
2014,07,25,03,47,12.00
2014,07,25,03,48,12.00
2014,07,25,03,49,12.00
2014,07,25,03,50,12.00
2014,07,25,03,51,12.00
2014,07,25,03,52,12.00
2014,07,25,03,53,12.00
2014,07,25,03,54,12.00
2014,07,25,03,55,12.00
2014,07,25,03,56,12.00
2014,07,25,03,57,12.00
2014,07,25,03,58,11.90
2014,07,25,03,59,11.90
2014,07,25,04,00,11.90
2014,07,25,04,01,11.90
2014,07,25,04,02,11.80
2014,07,25,04,03,11.80
2014,07,25,04,04,11.80
2014,07,25,04,05,11.80
2014,07,25,04,06,11.80
2014,07,25,04,07,11.80
2014,07,25,04,08,11.80
2014,07,25,04,09,11.80
2014,07,25,04,10,11.80
2014,07,25,04,11,11.80
2014,07,25,04,12,11.80
2014,07,25,04,13,11.80
2014,07,25,04,14,11.80
2014,07,25,04,15,11.80
2014,07,25,04,16,11.80
2014,07,25,04,17,11.70
2014,07,25,04,18,11.70
2014,07,25,04,19,11.70
2014,07,25,04,20,11.70
2014,07,25,04,21,11.70
2014,07,25,04,22,11.70
2014,07,25,04,23,11.70
2014,07,25,04,24,11.70
2014,07,25,04,25,11.70
2014,07,25,04,26,11.70
2014,07,25,04,27,11.70
2014,07,25,04,28,11.70
2014,07,25,04,29,11.70
2014,07,25,04,30,11.70
2014,07,25,04,31,11.70
2014,07,25,04,32,11.60
2014,07,25,04,33,11.60
2014,07,25,04,34,11.60
2014,07,25,04,35,11.60
2014,07,25,04,36,11.60
2014,07,25,04,37,11.60
2014,07,25,04,38,11.60
2014,07,25,04,39,11.60
2014,07,25,04,40,11.60
2014,07,25,04,41,11.60
2014,07,25,04,42,11.60
2014,07,25,04,43,11.60
2014,07,25,04,44,11.60
2014,07,25,04,45,11.60
2014,07,25,04,46,11.60
2014,07,25,04,47,11.60
2014,07,25,04,48,11.60
2014,07,25,04,49,11.60
2014,07,25,04,50,11.60
2014,07,25,04,51,11.60
2014,07,25,04,52,11.60
2014,07,25,04,53,11.60
2014,07,25,04,54,11.60
2014,07,25,04,55,11.70
2014,07,25,04,56,11.70
2014,07,25,04,57,11.70
2014,07,25,04,58,11.70
2014,07,25,04,59,11.70
2014,07,25,05,00,11.70
2014,07,25,05,01,11.70
2014,07,25,05,02,11.80
2014,07,25,05,03,11.80
2014,07,25,05,04,11.80
2014,07,25,05,05,11.80
2014,07,25,05,06,11.80
2014,07,25,05,07,11.80
2014,07,25,05,08,11.80
2014,07,25,05,09,11.80
2014,07,25,05,10,11.80
2014,07,25,05,11,11.80
2014,07,25,05,12,11.80
2014,07,25,05,13,11.80
2014,07,25,05,14,11.80
2014,07,25,05,15,11.80
2014,07,25,05,16,11.80
2014,07,25,05,17,11.80
2014,07,25,05,18,11.80
2014,07,25,05,19,11.80
2014,07,25,05,20,11.80
2014,07,25,05,21,11.80
2014,07,25,05,22,11.80
2014,07,25,05,23,11.80
2014,07,25,05,24,11.80
2014,07,25,05,25,11.80
2014,07,25,05,26,11.80
2014,07,25,05,27,11.80
2014,07,25,05,28,11.80
2014,07,25,05,29,11.80
2014,07,25,05,30,11.80
2014,07,25,05,31,11.80
2014,07,25,05,32,11.80
2014,07,25,05,33,11.80
2014,07,25,05,34,11.80
2014,07,25,05,35,11.80
2014,07,25,05,36,11.80
2014,07,25,05,37,11.80
2014,07,25,05,38,11.80
2014,07,25,05,39,11.80
2014,07,25,05,40,11.70
2014,07,25,05,41,11.70
2014,07,25,05,42,11.70
2014,07,25,05,43,11.70
2014,07,25,05,44,11.70
2014,07,25,05,45,11.70
2014,07,25,05,46,11.70
2014,07,25,05,47,11.70
2014,07,25,05,48,11.70
2014,07,25,05,49,11.60
2014,07,25,05,50,11.60
2014,07,25,05,51,11.60
2014,07,25,05,52,11.60
2014,07,25,05,53,11.60
2014,07,25,05,54,11.60
2014,07,25,05,55,11.60
2014,07,25,05,56,11.60
2014,07,25,05,57,11.60
2014,07,25,05,58,11.60
2014,07,25,05,59,11.60
2014,07,25,06,00,11.60
2014,07,25,06,01,11.60
2014,07,25,06,02,11.60
2014,07,25,06,03,11.60
2014,07,25,06,04,11.60
2014,07,25,06,05,11.60
2014,07,25,06,06,11.60
2014,07,25,06,07,11.60
2014,07,25,06,08,11.60
2014,07,25,06,09,11.60
2014,07,25,06,10,11.60
2014,07,25,06,11,11.60
2014,07,25,06,12,11.60
2014,07,25,06,13,11.60
2014,07,25,06,14,11.60
2014,07,25,06,15,11.60
2014,07,25,06,16,11.60
2014,07,25,06,17,11.60
2014,07,25,06,18,11.60
2014,07,25,06,19,11.60
2014,07,25,06,20,11.60
2014,07,25,06,21,11.60
2014,07,25,06,22,11.60
2014,07,25,06,23,11.60
2014,07,25,06,24,11.60
2014,07,25,06,25,11.60
2014,07,25,06,26,11.60
2014,07,25,06,27,11.60
2014,07,25,06,28,11.60
2014,07,25,06,29,11.60
2014,07,25,06,30,11.60
2014,07,25,06,31,11.60
2014,07,25,06,32,11.60
2014,07,25,06,33,11.60
2014,07,25,06,34,11.60
2014,07,25,06,35,11.70
2014,07,25,06,36,11.70
2014,07,25,06,37,11.70
2014,07,25,06,38,11.80
2014,07,25,06,39,11.80
2014,07,25,06,40,11.80
2014,07,25,06,41,11.80
2014,07,25,06,42,11.90
2014,07,25,06,43,11.90
2014,07,25,06,44,12.00
2014,07,25,06,45,12.00
2014,07,25,06,46,12.00
2014,07,25,06,47,12.10
2014,07,25,06,48,12.10
2014,07,25,06,49,12.10
2014,07,25,06,50,12.20
2014,07,25,06,51,12.20
2014,07,25,06,52,12.20
2014,07,25,06,53,12.30
2014,07,25,06,54,12.30
2014,07,25,06,55,12.30
2014,07,25,06,56,12.30
2014,07,25,06,57,12.40
2014,07,25,06,58,12.40
2014,07,25,06,59,12.50
2014,07,25,07,00,12.50
2014,07,25,07,01,12.50
2014,07,25,07,02,12.60
2014,07,25,07,03,12.60
2014,07,25,07,04,12.60
2014,07,25,07,05,12.70
2014,07,25,07,06,12.70
2014,07,25,07,07,12.80
2014,07,25,07,08,12.80
2014,07,25,07,09,12.90
2014,07,25,07,10,13.00
2014,07,25,07,11,13.10
2014,07,25,07,12,13.10
2014,07,25,07,13,13.20
2014,07,25,07,14,13.30
2014,07,25,07,15,13.40
2014,07,25,07,16,13.50
2014,07,25,07,17,13.60
2014,07,25,07,18,13.80
2014,07,25,07,19,13.90
2014,07,25,07,20,14.00
2014,07,25,07,21,14.20
2014,07,25,07,22,14.30
2014,07,25,07,23,14.40
2014,07,25,07,24,14.50
2014,07,25,07,25,14.50
2014,07,25,07,26,14.60
2014,07,25,07,27,14.70
2014,07,25,07,28,14.80
2014,07,25,07,29,14.80
2014,07,25,07,30,14.90
2014,07,25,07,31,14.90
2014,07,25,07,32,14.90
2014,07,25,07,33,14.80
2014,07,25,07,34,14.80
2014,07,25,07,35,14.80
2014,07,25,07,36,14.80
2014,07,25,07,37,14.70
2014,07,25,07,38,14.70
2014,07,25,07,39,14.60
2014,07,25,07,40,14.50
2014,07,25,07,41,14.50
2014,07,25,07,42,14.40
2014,07,25,07,43,14.40
2014,07,25,07,44,14.40
2014,07,25,07,45,14.40
2014,07,25,07,46,14.40
2014,07,25,07,47,14.40
2014,07,25,07,48,14.40
2014,07,25,07,49,14.40
2014,07,25,07,50,14.50
2014,07,25,07,51,14.50
2014,07,25,07,52,14.50
2014,07,25,07,53,14.50
2014,07,25,07,54,14.50
2014,07,25,07,55,14.50
2014,07,25,07,56,14.50
2014,07,25,07,57,14.50
2014,07,25,07,58,14.50
2014,07,25,07,59,14.50
2014,07,25,08,00,14.50
2014,07,25,08,01,14.50
2014,07,25,08,02,14.60
2014,07,25,08,03,14.60
2014,07,25,08,04,14.60
2014,07,25,08,05,14.60
2014,07,25,08,06,14.60
2014,07,25,08,07,14.70
2014,07,25,08,08,14.70
2014,07,25,08,09,14.70
2014,07,25,08,10,14.70
2014,07,25,08,11,14.80
2014,07,25,08,12,14.80
2014,07,25,08,13,14.80
2014,07,25,08,14,14.80
2014,07,25,08,15,14.80
2014,07,25,08,16,14.90
2014,07,25,08,17,14.90
2014,07,25,08,18,15.00
2014,07,25,08,19,15.10
2014,07,25,08,20,15.30
2014,07,25,08,21,15.30
2014,07,25,08,22,15.30
2014,07,25,08,23,15.30
2014,07,25,08,24,15.30
2014,07,25,08,25,15.40
2014,07,25,08,26,15.40
2014,07,25,08,27,15.50
2014,07,25,08,28,15.50
2014,07,25,08,29,15.60
2014,07,25,08,30,15.70
2014,07,25,08,31,15.70
2014,07,25,08,32,15.70
2014,07,25,08,33,15.70
2014,07,25,08,34,15.60
2014,07,25,08,35,15.60
2014,07,25,08,36,15.50
2014,07,25,08,37,15.50
2014,07,25,08,38,15.50
2014,07,25,08,39,15.50
2014,07,25,08,40,15.60
2014,07,25,08,41,15.70
2014,07,25,08,42,15.80
2014,07,25,08,43,15.80
2014,07,25,08,44,15.80
2014,07,25,08,45,15.80
2014,07,25,08,46,15.70
2014,07,25,08,47,15.60
2014,07,25,08,48,15.60
2014,07,25,08,49,15.60
2014,07,25,08,50,15.50
2014,07,25,08,51,15.50
2014,07,25,08,52,15.40
2014,07,25,08,53,15.40
2014,07,25,08,54,15.40
2014,07,25,08,55,15.40
2014,07,25,08,56,15.40
2014,07,25,08,57,15.40
2014,07,25,08,58,15.40
2014,07,25,08,59,15.40
2014,07,25,09,00,15.40
2014,07,25,09,01,15.50
2014,07,25,09,02,15.50
2014,07,25,09,03,15.60
2014,07,25,09,04,15.60
2014,07,25,09,05,15.60
2014,07,25,09,06,15.70
2014,07,25,09,07,15.80
2014,07,25,09,08,15.80
2014,07,25,09,09,15.80
2014,07,25,09,10,15.90
2014,07,25,09,11,16.00
2014,07,25,09,12,16.10
2014,07,25,09,13,16.10
2014,07,25,09,14,16.20
2014,07,25,09,15,16.20
2014,07,25,09,16,16.30
2014,07,25,09,17,16.40
2014,07,25,09,18,16.50
2014,07,25,09,19,16.60
2014,07,25,09,20,16.50
2014,07,25,09,21,16.40
2014,07,25,09,22,16.30
2014,07,25,09,23,16.30
2014,07,25,09,24,16.40
2014,07,25,09,25,16.40
2014,07,25,09,26,16.50
2014,07,25,09,27,16.70
2014,07,25,09,28,16.70
2014,07,25,09,29,16.80
2014,07,25,09,30,16.90
2014,07,25,09,31,16.90
2014,07,25,09,32,16.90
2014,07,25,09,33,17.00
2014,07,25,09,34,17.00
2014,07,25,09,35,17.00
2014,07,25,09,36,16.90
2014,07,25,09,37,17.00
2014,07,25,09,38,17.00
2014,07,25,09,39,17.00
2014,07,25,09,40,17.10
2014,07,25,09,41,17.20
2014,07,25,09,42,17.30
2014,07,25,09,43,17.50
2014,07,25,09,44,17.70
2014,07,25,09,45,17.70
2014,07,25,09,46,17.80
2014,07,25,09,47,17.80
2014,07,25,09,48,17.80
2014,07,25,09,49,17.80
2014,07,25,09,50,17.80
2014,07,25,09,51,17.80
2014,07,25,09,52,17.80
2014,07,25,09,53,17.70
2014,07,25,09,54,17.80
2014,07,25,09,55,17.80
2014,07,25,09,56,17.80
2014,07,25,09,57,17.80
2014,07,25,09,58,17.80
2014,07,25,09,59,17.90
2014,07,25,10,00,17.90
2014,07,25,10,01,17.80
2014,07,25,10,02,17.60
2014,07,25,10,03,17.50
2014,07,25,10,04,17.50
2014,07,25,10,05,17.60
2014,07,25,10,06,17.70
2014,07,25,10,07,17.60
2014,07,25,10,08,17.40
2014,07,25,10,09,17.30
2014,07,25,10,10,17.30
2014,07,25,10,11,17.30
2014,07,25,10,12,17.30
2014,07,25,10,13,17.20
2014,07,25,10,14,17.10
2014,07,25,10,15,17.00
2014,07,25,10,16,16.90
2014,07,25,10,17,16.90
2014,07,25,10,18,16.90
2014,07,25,10,19,17.00
2014,07,25,10,20,17.00
2014,07,25,10,21,17.10
2014,07,25,10,22,17.20
2014,07,25,10,23,17.30
2014,07,25,10,24,17.30
2014,07,25,10,25,17.30
2014,07,25,10,26,17.30
2014,07,25,10,27,17.30
2014,07,25,10,28,17.30
2014,07,25,10,29,17.30
2014,07,25,10,30,17.40
2014,07,25,10,31,17.40
2014,07,25,10,32,17.50
2014,07,25,10,33,17.60
2014,07,25,10,34,17.60
2014,07,25,10,35,17.70
2014,07,25,10,36,17.70
2014,07,25,10,37,17.50
2014,07,25,10,38,17.40
2014,07,25,10,39,17.50
2014,07,25,10,40,17.50
2014,07,25,10,41,17.60
2014,07,25,10,42,17.50
2014,07,25,10,43,17.40
2014,07,25,10,44,17.30
2014,07,25,10,45,17.20
2014,07,25,10,46,17.20
2014,07,25,10,47,17.20
2014,07,25,10,48,17.10
2014,07,25,10,49,17.00
2014,07,25,10,50,17.00
2014,07,25,10,51,17.10
2014,07,25,10,52,17.20
2014,07,25,10,53,17.30
2014,07,25,10,54,17.20
2014,07,25,10,55,17.20
2014,07,25,10,56,17.30
2014,07,25,10,57,17.40
2014,07,25,10,58,17.50
2014,07,25,10,59,17.50
2014,07,25,11,00,17.40
2014,07,25,11,01,17.30
2014,07,25,11,02,17.30
2014,07,25,11,03,17.30
2014,07,25,11,04,17.30
2014,07,25,11,05,17.20
2014,07,25,11,06,17.10
2014,07,25,11,07,17.20
2014,07,25,11,08,17.20
2014,07,25,11,09,17.20
2014,07,25,11,10,17.20
2014,07,25,11,11,17.20
2014,07,25,11,12,17.30
2014,07,25,11,13,17.40
2014,07,25,11,14,17.50
2014,07,25,11,15,17.60
2014,07,25,11,16,17.60
2014,07,25,11,17,17.50
2014,07,25,11,18,17.50
2014,07,25,11,19,17.60
2014,07,25,11,20,17.70
2014,07,25,11,21,17.80
2014,07,25,11,22,17.90
2014,07,25,11,23,17.90
2014,07,25,11,24,17.90
2014,07,25,11,25,17.90
2014,07,25,11,26,17.90
2014,07,25,11,27,17.90
2014,07,25,11,28,17.90
2014,07,25,11,29,17.90
2014,07,25,11,30,17.80
2014,07,25,11,31,17.80
2014,07,25,11,32,17.90
2014,07,25,11,33,17.80
2014,07,25,11,34,17.80
2014,07,25,11,35,17.60
2014,07,25,11,36,17.50
2014,07,25,11,37,17.50
2014,07,25,11,38,17.50
2014,07,25,11,39,17.50
2014,07,25,11,40,17.50
2014,07,25,11,41,17.50
2014,07,25,11,42,17.50
2014,07,25,11,43,17.50
2014,07,25,11,44,17.40
2014,07,25,11,45,17.40
2014,07,25,11,46,17.50
2014,07,25,11,47,17.50
2014,07,25,11,48,17.50
2014,07,25,11,49,17.40
2014,07,25,11,50,17.30
2014,07,25,11,51,17.40
2014,07,25,11,52,17.50
2014,07,25,11,53,17.60
2014,07,25,11,54,17.70
2014,07,25,11,55,17.70
2014,07,25,11,56,17.70
2014,07,25,11,57,17.80
2014,07,25,11,58,17.70
2014,07,25,11,59,17.60
2014,07,25,12,00,17.60
2014,07,25,12,01,17.60
2014,07,25,12,02,17.70
2014,07,25,12,03,17.80
2014,07,25,12,04,17.90
2014,07,25,12,05,18.10
2014,07,25,12,06,18.20
2014,07,25,12,07,18.20
2014,07,25,12,08,18.20
2014,07,25,12,09,18.20
2014,07,25,12,10,18.20
2014,07,25,12,11,18.20
2014,07,25,12,12,18.40
2014,07,25,12,13,18.40
2014,07,25,12,14,18.30
2014,07,25,12,15,18.20
2014,07,25,12,16,18.20
2014,07,25,12,17,18.30
2014,07,25,12,18,18.30
2014,07,25,12,19,18.20
2014,07,25,12,20,18.00
2014,07,25,12,21,17.80
2014,07,25,12,22,17.70
2014,07,25,12,23,17.60
2014,07,25,12,24,17.60
2014,07,25,12,25,17.70
2014,07,25,12,26,17.70
2014,07,25,12,27,17.70
2014,07,25,12,28,17.60
2014,07,25,12,29,17.60
2014,07,25,12,30,17.70
2014,07,25,12,31,17.70
2014,07,25,12,32,17.70
2014,07,25,12,33,17.80
2014,07,25,12,34,17.80
2014,07,25,12,35,17.80
2014,07,25,12,36,17.70
2014,07,25,12,37,17.60
2014,07,25,12,38,17.50
2014,07,25,12,39,17.50
2014,07,25,12,40,17.60
2014,07,25,12,41,17.70
2014,07,25,12,42,17.80
2014,07,25,12,43,17.80
2014,07,25,12,44,17.90
2014,07,25,12,45,17.90
2014,07,25,12,46,18.00
2014,07,25,12,47,18.00
2014,07,25,12,48,17.90
2014,07,25,12,49,17.90
2014,07,25,12,50,18.00
2014,07,25,12,51,18.10
2014,07,25,12,52,18.20
2014,07,25,12,53,18.30
2014,07,25,12,54,18.50
2014,07,25,12,55,18.50
2014,07,25,12,56,18.60
2014,07,25,12,57,18.60
2014,07,25,12,58,18.80
2014,07,25,12,59,18.90
2014,07,25,13,00,18.90
2014,07,25,13,01,19.00
2014,07,25,13,02,19.10
2014,07,25,13,03,19.20
2014,07,25,13,04,19.30
2014,07,25,13,05,19.40
2014,07,25,13,06,19.50
2014,07,25,13,07,19.60
2014,07,25,13,08,19.80
2014,07,25,13,09,19.90
2014,07,25,13,10,20.00
2014,07,25,13,11,20.00
2014,07,25,13,12,19.90
2014,07,25,13,13,19.90
2014,07,25,13,14,19.90
2014,07,25,13,15,19.70
2014,07,25,13,16,19.60
2014,07,25,13,17,19.60
2014,07,25,13,18,19.50
2014,07,25,13,19,19.40
2014,07,25,13,20,19.40
2014,07,25,13,21,19.20
2014,07,25,13,22,19.10
2014,07,25,13,23,19.10
2014,07,25,13,24,19.10
2014,07,25,13,25,19.10
2014,07,25,13,26,19.10
2014,07,25,13,27,18.90
2014,07,25,13,28,18.90
2014,07,25,13,29,18.90
2014,07,25,13,30,18.90
2014,07,25,13,31,18.90
2014,07,25,13,32,18.90
2014,07,25,13,33,18.90
2014,07,25,13,34,18.90
2014,07,25,13,35,18.90
2014,07,25,13,36,19.00
2014,07,25,13,37,19.10
2014,07,25,13,38,19.10
2014,07,25,13,39,19.10
2014,07,25,13,40,19.20
2014,07,25,13,41,19.10
2014,07,25,13,42,19.10
2014,07,25,13,43,19.20
2014,07,25,13,44,19.30
2014,07,25,13,45,19.30
2014,07,25,13,46,19.10
2014,07,25,13,47,19.10
2014,07,25,13,48,19.10
2014,07,25,13,49,19.10
2014,07,25,13,50,19.10
2014,07,25,13,51,19.10
2014,07,25,13,52,19.30
2014,07,25,13,53,19.40
2014,07,25,13,54,19.50
2014,07,25,13,55,19.60
2014,07,25,13,56,19.70
2014,07,25,13,57,19.70
2014,07,25,13,58,19.70
2014,07,25,13,59,19.60
2014,07,25,14,00,19.40
2014,07,25,14,01,19.40
2014,07,25,14,02,19.30
2014,07,25,14,03,19.30
2014,07,25,14,04,19.30
2014,07,25,14,05,19.30
2014,07,25,14,06,19.30
2014,07,25,14,07,19.30
2014,07,25,14,08,19.30
2014,07,25,14,09,19.30
2014,07,25,14,10,19.30
2014,07,25,14,11,19.40
2014,07,25,14,12,19.50
2014,07,25,14,13,19.60
2014,07,25,14,14,19.70
2014,07,25,14,15,19.60
2014,07,25,14,16,19.70
2014,07,25,14,17,19.70
2014,07,25,14,18,19.80
2014,07,25,14,19,19.70
2014,07,25,14,20,19.70
2014,07,25,14,21,19.60
2014,07,25,14,22,19.60
2014,07,25,14,23,19.60
2014,07,25,14,24,19.60
2014,07,25,14,25,19.60
2014,07,25,14,26,19.50
2014,07,25,14,27,19.50
2014,07,25,14,28,19.40
2014,07,25,14,29,19.40
2014,07,25,14,30,19.50
2014,07,25,14,31,19.70
2014,07,25,14,32,19.80
2014,07,25,14,33,19.70
2014,07,25,14,34,19.60
2014,07,25,14,35,19.60
2014,07,25,14,36,19.60
2014,07,25,14,37,19.70
2014,07,25,14,38,19.90
2014,07,25,14,39,19.90
2014,07,25,14,40,20.00
2014,07,25,14,41,20.10
2014,07,25,14,42,20.10
2014,07,25,14,43,20.00
2014,07,25,14,44,19.90
2014,07,25,14,45,19.90
2014,07,25,14,46,20.00
2014,07,25,14,47,20.10
2014,07,25,14,48,20.20
2014,07,25,14,49,20.20
2014,07,25,14,50,20.00
2014,07,25,14,51,19.90
2014,07,25,14,52,19.80
2014,07,25,14,53,19.70
2014,07,25,14,54,19.70
2014,07,25,14,55,19.80
2014,07,25,14,56,20.00
2014,07,25,14,57,20.10
2014,07,25,14,58,20.20
2014,07,25,14,59,20.40
2014,07,25,15,00,20.60
2014,07,25,15,01,20.60
2014,07,25,15,02,20.50
2014,07,25,15,03,20.50
2014,07,25,15,04,20.60
2014,07,25,15,05,20.60
2014,07,25,15,06,20.60
2014,07,25,15,07,20.60
2014,07,25,15,08,20.70
2014,07,25,15,09,20.70
2014,07,25,15,10,20.70
2014,07,25,15,11,20.70
2014,07,25,15,12,20.60
2014,07,25,15,13,20.60
2014,07,25,15,14,20.70
2014,07,25,15,15,20.80
2014,07,25,15,16,21.00
2014,07,25,15,17,21.20
2014,07,25,15,18,21.30
2014,07,25,15,19,21.40
2014,07,25,15,20,21.40
2014,07,25,15,21,21.30
2014,07,25,15,22,21.30
2014,07,25,15,23,21.30
2014,07,25,15,24,21.30
2014,07,25,15,25,21.30
2014,07,25,15,26,21.20
2014,07,25,15,27,21.20
2014,07,25,15,28,21.00
2014,07,25,15,29,20.80
2014,07,25,15,30,20.60
2014,07,25,15,31,20.50
2014,07,25,15,32,20.50
2014,07,25,15,33,20.50
2014,07,25,15,34,20.60
2014,07,25,15,35,20.70
2014,07,25,15,36,20.80
2014,07,25,15,37,20.90
2014,07,25,15,38,21.00
2014,07,25,15,39,21.10
2014,07,25,15,40,21.10
2014,07,25,15,41,21.00
2014,07,25,15,42,21.00
2014,07,25,15,43,21.00
2014,07,25,15,44,20.90
2014,07,25,15,45,20.80
2014,07,25,15,46,20.80
2014,07,25,15,47,20.80
2014,07,25,15,48,20.90
2014,07,25,15,49,20.90
2014,07,25,15,50,21.00
2014,07,25,15,51,21.00
2014,07,25,15,52,21.00
2014,07,25,15,53,21.10
2014,07,25,15,54,21.20
2014,07,25,15,55,21.30
2014,07,25,15,56,21.30
2014,07,25,15,57,21.30
2014,07,25,15,58,21.30
2014,07,25,15,59,21.30
2014,07,25,16,00,21.40
2014,07,25,16,01,21.50
2014,07,25,16,02,21.60
2014,07,25,16,03,21.60
2014,07,25,16,04,21.70
2014,07,25,16,05,21.70
2014,07,25,16,06,21.80
2014,07,25,16,07,21.80
2014,07,25,16,08,21.80
2014,07,25,16,09,21.90
2014,07,25,16,10,22.00
2014,07,25,16,11,22.10
2014,07,25,16,12,22.30
2014,07,25,16,13,22.30
2014,07,25,16,14,22.40
2014,07,25,16,15,22.10
2014,07,25,16,16,21.90
2014,07,25,16,17,21.60
2014,07,25,16,18,21.30
2014,07,25,16,19,21.10
2014,07,25,16,20,21.10
2014,07,25,16,21,21.00
2014,07,25,16,22,21.10
2014,07,25,16,23,21.10
2014,07,25,16,24,21.20
2014,07,25,16,25,21.30
2014,07,25,16,26,21.30
2014,07,25,16,27,21.30
2014,07,25,16,28,21.30
2014,07,25,16,29,21.30
2014,07,25,16,30,21.30
2014,07,25,16,31,21.30
2014,07,25,16,32,21.30
2014,07,25,16,33,21.20
2014,07,25,16,34,21.20
2014,07,25,16,35,21.30
2014,07,25,16,36,21.30
2014,07,25,16,37,21.40
2014,07,25,16,38,21.50
2014,07,25,16,39,21.60
2014,07,25,16,40,21.60
2014,07,25,16,41,21.60
2014,07,25,16,42,21.60
2014,07,25,16,43,21.70
2014,07,25,16,44,21.80
2014,07,25,16,45,21.90
2014,07,25,16,46,22.00
2014,07,25,16,47,22.00
2014,07,25,16,48,22.10
2014,07,25,16,49,22.10
2014,07,25,16,50,22.10
2014,07,25,16,51,22.20
2014,07,25,16,52,22.20
2014,07,25,16,53,22.20
2014,07,25,16,54,22.20
2014,07,25,16,55,22.00
2014,07,25,16,56,21.90
2014,07,25,16,57,21.80
2014,07,25,16,58,21.80
2014,07,25,16,59,21.60
2014,07,25,17,00,21.60
2014,07,25,17,01,21.60
2014,07,25,17,02,21.50
2014,07,25,17,03,21.60
2014,07,25,17,04,21.60
2014,07,25,17,05,21.60
2014,07,25,17,06,21.60
2014,07,25,17,07,21.60
2014,07,25,17,08,21.60
2014,07,25,17,09,21.60
2014,07,25,17,10,21.70
2014,07,25,17,11,21.90
2014,07,25,17,12,22.00
2014,07,25,17,13,22.20
2014,07,25,17,14,22.30
2014,07,25,17,15,22.30
2014,07,25,17,16,22.30
2014,07,25,17,17,22.40
2014,07,25,17,18,22.30
2014,07,25,17,19,22.30